User: anonymous   Login
Location: Drayton Valley
(53.2170°N, 114.9830°W)
Time: 18:23:11
(UTC-06:00)
Language:

MOZ.5/SAFIR/RUBIN 5/SL-8 - Orbit

View from above orbital plane
View from above orbital plane
View from above satellite
View from above satellite

Ground track
Ground track

The orbit data is extracted from the following two-line orbital elements,

1 28898U 05043G   16178.46355864  .00000068  00000-0  23206-4 0  9992
2 28898  97.8806 338.7259 0018878 223.4747 136.4966 14.60106362567926
Epoch (UTC): 26 June 2016 11:07:31
Eccentricity: 0.0018878
inclination: 97.8806°
perigee height: 679 km
apogee height: 706 km
right ascension of ascending node: 338.7259°
argument of perigee: 223.4747°
revolutions per day: 14.60106362
mean anomaly at epoch: 136.4966°
orbit number at epoch: 56792

The dashed part of the orbit path shows where the satellite is in the earth's shadow,  

DLR